Temp
60 60 60 60 60 60 60 60 60 60 60 60 60 60 60 60 59 53 57 71 67 72 75 71 72 70 69 65 66 63 55 51 55 55 58 61 63 67 74 72 74 76 74 73 73
60 60 60 60 60 59 59 60 60 60 60 60 60 60 60 58 51 54 70 73 72 73 71 70 66 68 64 62 63 60 55 58 65 63 60 60 65 68 70 70 69 69 72 73 72
59 59 59 59 59 59 59 59 60 60 60 60 60 59 59 59 54 69 76 73 72 73 73 71 70 66 59 58 59 56 57 64 68 67 64 63 64 70 67 63 70 66 66 70 71
58 59 59 59 59 59 59 59 59 60 60 59 59 59 58 53 53 69 75 73 73 71 71 69 64 57 55 57 60 57 64 65 67 68 65 61 67 66 67 68 75 71 70 70 69
58 58 58 58 58 58 58 59 59 59 58 59 58 58 53 53 61 71 75 74 71 71 69 66 60 58 55 57 60 56 62 65 70 65 61 68 65 65 65 69 73 71 70 69 68
57 58 58 58 58 58 58 58 57 57 58 58 58 58 51 53 71 74 72 71 71 68 62 65 64 65 60 58 58 64 63 63 61 58 62 63 62 68 66 70 70 69 68 67 66
57 57 57 57 57 57 58 57 57 57 57 58 59 58 54 63 73 72 71 68 71 73 66 67 68 65 63 58 62 63 56 58 58 59 61 66 60 61 66 69 67 67 66 66 65
57 57 57 57 57 57 57 57 56 57 59 59 59 55 57 69 69 71 72 70 72 71 70 72 70 64 60 62 63 56 56 50 54 61 62 64 57 63 66 66 64 66 66 64 64
57 56 56 56 57 57 56 56 57 60 60 60 53 51 59 73 70 76 76 75 72 72 72 83 69 61 62 55 51 53 47 48 53 62 62 58 54 64 66 66 63 63 63 63 61
57 56 56 56 56 56 55 55 58 58 61 62 65 55 63 67 73 78 73 78 73 71 69 65 60 55 52 52 44 46 48 48 51 60 60 56 55 60 64 64 62 60 61 61 60
56 56 56 55 56 55 51 54 58 56 55 58 62 63 67 75 77 74 76 75 71 69 56 57 54 49 54 55 55 54 51 51 56 62 59 58 61 59 62 62 59 59 59 59 58
56 56 56 55 55 55 47 60 61 59 52 63 64 65 71 72 67 71 77 68 64 57 58 56 49 60 60 59 57 54 51 52 58 62 60 55 57 58 61 62 60 58 58 59 60
55 55 55 55 54 52 51 61 62 58 51 62 66 65 67 69 64 66 73 66 62 57 56 53 59 64 61 56 56 52 51 53 56 58 57 55 51 53 59 61 61 62 63 61 58
55 55 55 54 55 46 57 60 58 57 47 60 65 69 68 66 63 73 75 71 61 60 58 56 62 62 56 58 59 49 60 61 58 54 47 56 44 55 54 57 57 60 60 59 59
55 55 54 53 46 53 60 54 55 61 38 65 67 73 68 61 68 69 73 70 63 62 59 59 60 57 56 60 62 58 62 58 57 50 48 49 46 47 56 55 57 59 60 58 57
55 54 54 48 44 52 54 55 61 48 38 58 65 63 62 64 67 68 69 72 69 62 60 60 64 64 63 65 65 65 58 54 47 46 40 49 49 45 53 57 60 61 61 58 56
54 53 50 54 59 54 55 58 46 39 57 55 57 61 57 59 63 64 61 59 56 49 49 57 60 64 67 58 59 58 49 40 40 39 40 47 47 52 56 59 63 63 61 59 56
52 51 51 54 52 53 57 52 38 50 50 61 60 59 56 59 59 60 58 54 59 55 49 48 50 60 64 62 57 52 51 42 36 36 42 48 44 53 56 62 62 64 61 59 55
50 47 52 58 57 53 53 39 41 48 58 56 57 52 52 57 56 57 55 56 58 57 49 46 49 63 67 65 63 52 48 53 44 40 39 43 49 55 56 57 57 58 58 54 55
41 46 56 61 59 56 46 42 47 57 60 58 48 53 47 50 52 52 53 57 55 60 58 53 46 58 65 64 62 59 59 47 43 37 35 41 43 48 51 53 54 54 54 55 56
44 52 61 62 59 52 42 43 51 62 62 55 52 50 49 48 48 50 50 56 58 57 58 53 49 52 57 54 54 54 50 48 46 43 38 36 41 53 58 57 55 55 56 55 55
41 48 60 60 50 42 44 49 54 58 60 58 55 52 49 49 47 48 49 52 60 58 52 53 47 43 51 59 61 55 51 48 42 41 40 39 43 58 59 59 59 59 58 57 57
39 40 55 56 42 40 46 51 55 54 54 54 51 53 51 46 43 49 51 59 58 56 51 53 44 38 44 50 54 50 52 51 46 41 40 40 44 59 56 56 59 58 56 57 56
42 41 45 45 42 40 40 44 48 55 54 55 51 52 47 44 46 45 48 56 58 57 61 54 44 44 39 45 48 46 51 52 47 36 42 43 49 55 56 55 56 57 56 57 57
40 37 38 36 40 39 39 43 45 45 50 51 47 48 44 38 41 42 48 49 54 58 54 49 41 44 48 51 51 49 50 52 47 49 42 51 49 57 58 57 59 58 57 56 56
37 36 37 35 38 38 39 37 42 44 45 44 42 46 45 40 41 38 42 41 44 49 46 47 40 44 44 52 52 49 52 51 52 51 51 53 50 58 57 56 56 58 58 57 57
37 39 38 37 37 36 36 39 42 43 47 49 46 43 43 44 45 45 46 46 48 43 42 43 40 39 36 48 47 40 49 51 51 53 51 48 55 57 57 58 58 57 59 59 59
MSLP
1017.91 1017.55 1016.89 1016.70 1016.28 1015.83 1015.22 1014.78 1014.53 1014.19 1013.86 1013.58 1013.28 1013.05 1012.83 1012.52 1011.97 1011.69 1010.59 1007.78 1007.80 1007.49 1007.75 1008.02 1008.14 1008.37 1008.70 1009.07 1009.26 1009.77 1011.26 1012.42 1012.22 1012.29 1011.35 1011.47 1011.47 1011.35 1011.01 1010.80 1010.94 1011.33 1011.75 1012.44 1013.62
1017.83 1017.17 1016.89 1016.69 1016.09 1015.56 1014.95 1014.59 1014.34 1013.97 1013.72 1013.48 1013.14 1012.98 1012.76 1012.55 1012.03 1010.50 1007.22 1006.96 1007.25 1007.46 1007.91 1008.06 1008.45 1008.49 1009.05 1009.13 1009.35 1009.84 1010.94 1011.12 1010.44 1010.36 1010.49 1011.04 1010.86 1011.08 1011.21 1010.99 1011.27 1011.98 1012.42 1012.70 1013.76
1017.62 1017.13 1016.95 1016.44 1015.81 1015.25 1014.65 1014.25 1014.01 1013.69 1013.41 1013.18 1013.04 1012.88 1012.66 1012.49 1011.64 1007.97 1006.44 1006.46 1007.06 1007.37 1007.45 1007.78 1008.21 1008.47 1008.94 1009.07 1009.32 1009.76 1010.03 1009.80 1009.41 1009.36 1009.83 1010.60 1011.07 1011.05 1011.10 1011.39 1010.87 1011.72 1012.77 1013.09 1013.76
1017.48 1017.18 1016.85 1016.22 1015.64 1015.02 1014.47 1014.05 1013.74 1013.44 1013.27 1013.12 1012.89 1012.72 1012.58 1012.50 1010.29 1006.93 1006.37 1006.07 1006.99 1007.58 1007.60 1007.94 1008.38 1008.83 1009.04 1009.13 1009.06 1009.33 1009.25 1009.14 1008.94 1009.13 1009.80 1010.57 1010.75 1011.13 1011.04 1010.34 1010.40 1011.38 1012.41 1013.34 1014.00
1017.52 1017.32 1016.76 1016.02 1015.45 1014.81 1014.24 1013.79 1013.46 1013.29 1013.11 1012.90 1012.75 1012.76 1012.54 1011.75 1009.00 1006.68 1006.68 1006.73 1007.25 1007.77 1007.83 1008.07 1008.47 1008.81 1008.83 1008.93 1008.99 1009.09 1008.94 1009.05 1008.47 1009.01 1009.39 1009.98 1010.51 1010.93 1010.95 1010.57 1010.62 1011.71 1012.82 1013.57 1014.41
1017.72 1017.31 1016.57 1015.90 1015.28 1014.60 1013.99 1013.50 1013.07 1012.80 1012.67 1012.58 1012.58 1012.80 1012.48 1010.50 1006.91 1006.61 1006.85 1007.16 1007.14 1007.73 1008.02 1008.05 1008.13 1008.22 1008.44 1008.63 1008.81 1008.61 1008.66 1008.74 1008.99 1009.45 1009.76 1010.11 1010.79 1010.85 1010.87 1010.84 1011.28 1012.03 1013.03 1013.82 1014.54
1017.78 1017.17 1016.46 1015.81 1015.09 1014.34 1013.63 1013.06 1012.59 1012.27 1012.21 1012.27 1012.36 1012.52 1011.63 1008.25 1006.71 1006.83 1007.02 1007.01 1007.13 1007.32 1007.94 1007.90 1007.80 1008.03 1008.16 1008.44 1008.38 1008.43 1008.82 1009.10 1009.58 1009.80 1010.08 1010.32 1011.41 1010.76 1010.67 1011.15 1011.75 1012.56 1013.43 1014.49 1015.38
1017.71 1017.05 1016.27 1015.47 1014.62 1013.84 1013.20 1012.64 1012.15 1011.60 1011.51 1011.85 1012.23 1012.04 1009.89 1006.82 1006.66 1006.58 1006.53 1006.86 1007.05 1007.19 1007.34 1007.36 1007.64 1007.94 1008.16 1008.35 1008.59 1008.74 1008.96 1009.23 1009.80 1009.84 1010.18 1010.14 1010.40 1010.67 1011.09 1011.53 1012.28 1013.32 1014.56 1015.68 1016.29
1017.65 1016.95 1016.05 1015.16 1014.28 1013.45 1012.82 1012.32 1011.85 1011.41 1011.52 1011.81 1012.05 1011.36 1008.59 1006.49 1006.50 1005.70 1005.81 1006.39 1006.78 1007.16 1007.16 1007.28 1007.73 1008.42 1008.65 1009.09 1009.57 1009.68 1009.58 1009.47 1009.67 1009.72 1010.00 1010.74 1010.63 1010.58 1011.32 1011.98 1013.28 1014.43 1015.16 1016.08 1017.04
1017.45 1016.60 1015.73 1014.90 1014.00 1013.18 1012.34 1011.79 1011.64 1011.75 1011.82 1011.73 1011.11 1010.88 1007.92 1006.73 1005.94 1005.44 1005.62 1005.94 1006.46 1006.95 1007.41 1007.66 1008.43 1008.95 1009.65 1009.91 1010.34 1010.10 1009.82 1009.60 1009.37 1009.53 1010.11 1010.60 1010.76 1010.79 1011.22 1012.38 1013.35 1014.39 1015.21 1015.96 1016.40
1017.17 1016.25 1015.43 1014.47 1013.64 1012.95 1012.21 1011.70 1012.10 1011.84 1011.32 1010.52 1009.82 1009.05 1007.61 1006.43 1005.74 1005.48 1005.53 1005.89 1006.29 1006.97 1007.76 1008.26 1009.06 1009.41 1009.55 1009.62 1009.65 1009.69 1009.65 1009.64 1009.42 1009.16 1009.81 1010.10 1010.30 1010.61 1011.70 1012.36 1013.14 1013.77 1014.66 1014.99 1014.78
1016.90 1015.98 1015.01 1014.06 1013.25 1012.59 1012.52 1012.33 1012.29 1012.35 1011.26 1009.15 1008.46 1008.07 1006.91 1006.70 1006.69 1005.77 1005.46 1006.00 1006.58 1007.41 1007.89 1008.73 1009.12 1008.67 1008.83 1009.19 1009.38 1009.52 1009.52 1009.37 1009.02 1008.98 1009.76 1010.09 1010.37 1011.09 1011.48 1011.46 1011.63 1012.34 1013.16 1014.14 1015.52
1016.58 1015.55 1014.59 1013.56 1012.86 1012.56 1012.77 1012.07 1011.73 1011.82 1011.50 1008.60 1007.57 1007.01 1006.37 1006.57 1006.58 1005.73 1005.64 1005.92 1006.65 1007.59 1008.15 1008.77 1008.35 1008.19 1008.34 1008.63 1009.00 1009.06 1009.24 1009.08 1009.19 1009.23 1009.67 1010.37 1010.97 1011.16 1011.42 1011.69 1012.37 1012.59 1012.74 1013.88 1014.51
1016.20 1015.25 1014.33 1013.21 1012.95 1013.40 1012.52 1011.74 1011.56 1011.52 1011.03 1008.61 1006.94 1005.99 1006.02 1006.19 1005.87 1005.18 1005.11 1005.57 1006.53 1007.32 1008.24 1008.36 1007.69 1007.71 1007.91 1008.12 1008.38 1008.49 1008.08 1008.42 1008.94 1009.87 1010.20 1010.05 1011.10 1011.39 1011.55 1011.92 1012.28 1012.52 1012.96 1013.68 1014.77
1015.89 1014.96 1014.24 1013.67 1013.58 1013.08 1012.13 1011.45 1011.04 1011.19 1010.53 1008.27 1006.68 1005.44 1005.83 1006.29 1005.84 1004.95 1004.92 1005.28 1006.22 1007.07 1007.90 1007.52 1007.23 1007.26 1007.34 1007.30 1007.56 1007.52 1007.47 1008.18 1008.57 1009.52 1009.94 1010.17 1010.89 1011.08 1011.47 1011.80 1011.20 1011.13 1012.14 1013.27 1014.38
1015.28 1014.56 1014.04 1013.90 1013.73 1012.26 1011.71 1011.27 1011.02 1011.48 1010.32 1008.61 1007.46 1006.90 1006.78 1006.38 1005.92 1005.24 1005.12 1005.32 1005.88 1006.91 1007.35 1007.37 1006.97 1006.76 1006.36 1006.56 1006.78 1006.80 1007.55 1008.51 1009.52 1010.10 1010.68 1009.67 1010.19 1010.89 1010.81 1009.50 1009.12 1010.38 1011.38 1012.48 1013.79
1014.66 1013.84 1013.53 1013.30 1012.71 1011.79 1011.36 1011.53 1012.17 1011.59 1010.62 1009.92 1009.03 1008.44 1008.35 1007.75 1006.85 1006.33 1005.95 1006.19 1006.69 1007.43 1007.61 1007.42 1006.84 1006.32 1006.02 1006.43 1006.67 1007.14 1008.65 1009.93 1010.64 1010.98 1010.67 1009.79 1010.11 1008.84 1008.47 1007.91 1007.63 1008.34 1010.13 1011.61 1013.01
1014.26 1013.44 1013.20 1012.86 1012.41 1012.20 1011.82 1012.30 1012.58 1012.22 1011.37 1010.50 1009.93 1009.32 1009.36 1008.88 1008.21 1007.58 1007.32 1007.46 1007.40 1007.86 1008.30 1008.10 1007.20 1006.25 1005.74 1005.86 1006.43 1007.22 1008.42 1010.26 1011.02 1011.50 1010.95 1010.02 1009.47 1008.02 1007.82 1007.33 1007.83 1008.39 1009.83 1011.54 1012.86
1014.18 1013.49 1013.17 1012.37 1012.10 1012.34 1012.69 1013.65 1013.39 1012.58 1011.80 1011.22 1010.67 1010.58 1010.50 1010.09 1009.92 1009.06 1008.73 1008.72 1008.46 1008.24 1008.56 1008.45 1007.67 1006.51 1005.87 1005.48 1006.10 1007.07 1008.17 1008.69 1010.17 1011.23 1011.12 1009.98 1009.00 1007.97 1007.86 1007.82 1008.04 1008.64 1009.63 1010.93 1012.00
1015.65 1014.80 1013.38 1012.18 1012.02 1012.37 1013.35 1014.00 1013.47 1012.49 1011.82 1011.41 1011.63 1011.54 1011.88 1011.83 1011.22 1010.41 1010.01 1010.33 1009.90 1009.45 1008.98 1008.83 1008.59 1007.12 1006.10 1005.82 1006.10 1006.54 1007.59 1009.08 1010.24 1011.20 1011.29 1010.18 1009.42 1008.28 1008.12 1007.88 1008.23 1008.95 1009.47 1010.55 1011.54
1015.92 1015.07 1012.93 1012.13 1012.15 1013.33 1014.54 1014.48 1013.53 1012.31 1012.03 1011.97 1012.11 1012.47 1012.90 1013.03 1012.72 1011.99 1011.65 1011.19 1010.82 1010.16 1009.56 1009.63 1009.37 1008.37 1007.33 1007.14 1007.11 1007.31 1007.86 1009.09 1010.12 1010.74 1010.80 1010.41 1008.89 1006.63 1006.34 1006.49 1007.16 1007.77 1008.85 1009.69 1010.64
1017.20 1016.04 1013.40 1012.42 1013.76 1015.35 1015.55 1014.96 1013.98 1013.10 1012.64 1012.46 1012.67 1013.18 1013.62 1013.75 1013.53 1013.14 1012.72 1012.14 1011.73 1011.25 1010.89 1010.42 1010.37 1009.94 1008.76 1007.77 1007.48 1007.92 1009.27 1010.29 1011.54 1011.21 1010.69 1009.90 1007.54 1005.30 1005.02 1005.64 1006.26 1006.97 1007.97 1009.11 1010.05
1018.73 1017.49 1014.26 1013.81 1015.55 1016.48 1016.07 1015.42 1014.70 1014.14 1013.81 1013.51 1013.79 1013.95 1014.29 1014.47 1014.39 1013.88 1013.31 1012.57 1012.20 1012.17 1011.94 1011.43 1011.27 1010.90 1009.81 1009.19 1008.51 1008.90 1009.54 1010.66 1011.38 1011.91 1010.56 1009.59 1007.16 1005.31 1005.26 1005.60 1006.11 1006.79 1007.74 1009.03 1009.96
1019.31 1018.92 1017.40 1017.05 1017.67 1017.49 1017.25 1016.72 1015.55 1014.88 1014.81 1014.59 1014.73 1014.81 1015.05 1015.18 1015.06 1014.82 1014.35 1013.48 1013.08 1012.74 1012.43 1012.12 1012.07 1011.85 1011.31 1010.60 1010.27 1010.08 1009.51 1010.04 1011.14 1011.94 1011.09 1009.44 1006.61 1005.68 1005.20 1005.34 1006.16 1006.68 1007.26 1008.23 1009.34
1020.31 1021.01 1020.76 1019.94 1019.30 1018.81 1018.31 1017.61 1016.91 1016.18 1015.81 1015.66 1015.78 1015.99 1016.18 1016.31 1016.13 1015.97 1015.55 1014.99 1014.10 1013.26 1013.05 1013.06 1013.05 1012.29 1011.66 1011.14 1010.61 1010.14 1009.85 1009.70 1009.90 1010.14 1010.44 1008.04 1007.24 1004.99 1004.47 1004.26 1004.80 1006.02 1007.02 1008.03 1008.92
1021.63 1021.89 1021.61 1020.99 1020.35 1019.47 1019.10 1018.84 1017.98 1017.39 1016.99 1016.84 1016.89 1016.75 1016.74 1017.03 1017.43 1017.29 1016.91 1016.61 1015.60 1014.35 1014.15 1014.09 1013.77 1013.05 1012.09 1011.18 1010.48 1009.70 1009.08 1008.86 1008.45 1008.52 1008.10 1007.57 1006.35 1004.13 1004.02 1004.44 1004.76 1005.18 1006.26 1007.10 1007.86
1022.35 1022.19 1021.91 1021.96 1021.10 1020.50 1019.79 1019.34 1019.00 1018.59 1017.84 1017.61 1017.77 1017.59 1017.40 1017.63 1017.75 1017.28 1016.90 1016.59 1015.97 1015.61 1015.17 1015.07 1014.58 1014.06 1012.68 1011.52 1010.63 1009.42 1008.08 1007.52 1007.27 1007.23 1008.02 1007.51 1005.70 1003.41 1004.01 1004.09 1004.13 1004.43 1005.14 1005.60 1006.42
Wind_Speed
18 18 19 19 18 18 18 18 17 17 16 17 17 17 17 16 15 2 8 11 6 8 7 2 3 2 3 3 3 3 6 3 6 7 5 6 5 1 1 5 2 5 3 9 14
19 20 20 20 19 19 19 18 18 17 16 17 17 16 16 15 3 6 11 7 8 13 6 7 3 4 3 3 1 5 5 11 7 7 6 7 6 9 5 5 3 5 8 18 16
21 21 21 21 21 21 21 20 19 18 18 18 17 15 14 11 5 7 4 12 14 6 4 4 4 3 3 2 3 4 6 5 6 7 5 10 6 5 7 5 9 12 14 16 17
22 22 23 23 23 22 22 21 20 19 18 17 16 13 11 3 1 1 6 8 13 6 3 6 4 4 4 4 3 4 6 7 4 6 7 11 9 6 8 6 9 15 17 14 16
23 23 23 23 23 23 23 22 21 20 18 15 13 10 4 1 10 2 8 12 8 6 6 5 4 5 5 4 4 3 3 6 7 7 3 11 9 6 7 1 15 16 16 15 13
23 24 24 24 24 24 23 22 21 20 17 14 9 4 2 3 4 4 8 5 6 6 4 5 7 6 4 3 4 8 4 4 3 3 4 8 3 7 6 9 16 19 15 13 13
23 24 25 25 25 24 23 21 21 20 17 11 6 4 2 14 3 4 3 3 7 6 5 4 4 3 4 1 2 2 2 3 4 5 4 10 2 8 7 11 17 15 13 11 9
24 24 26 26 26 25 25 23 22 19 8 6 9 3 8 4 3 6 5 1 4 4 2 3 4 1 1 1 6 1 5 2 1 3 2 5 12 6 11 15 15 12 10 9 8
24 24 26 27 26 26 25 22 17 4 6 12 5 2 10 6 3 5 6 4 6 4 4 3 4 2 5 4 6 7 1 2 3 4 5 3 3 6 10 12 10 9 10 10 8
25 25 25 26 27 25 24 15 2 2 4 5 4 2 4 2 4 3 3 4 3 5 3 3 5 4 5 6 3 1 3 2 1 7 6 6 5 5 14 12 13 13 13 13 14
26 25 25 25 25 21 11 2 6 4 0 5 4 5 5 7 4 2 3 6 3 7 2 2 5 3 6 5 3 2 2 2 4 7 6 13 10 11 11 12 13 14 15 17 19
27 26 25 25 24 19 1 6 5 2 10 9 11 8 9 4 6 2 4 5 4 3 2 6 2 9 3 5 3 3 2 5 3 5 8 4 13 5 15 18 21 20 19 16 14
25 25 25 25 25 3 3 4 3 3 1 9 5 4 5 8 6 7 5 3 4 4 4 6 6 5 3 2 2 4 5 5 6 1 2 6 4 3 5 4 7 12 12 12 18
25 25 25 28 2 3 2 2 6 5 5 8 6 4 3 3 2 7 7 6 2 8 7 5 4 4 3 4 7 4 7 6 4 5 5 5 5 6 4 8 8 12 12 12 12
26 25 22 9 2 1 4 7 4 3 4 12 7 1 2 1 5 2 3 4 8 5 6 10 5 3 3 6 7 10 3 2 3 5 3 3 4 4 8 13 18 20 16 12 10
29 26 18 0 1 6 7 7 3 8 2 8 6 7 9 5 8 3 4 4 3 5 2 7 2 5 7 5 6 3 3 5 4 4 2 7 7 5 12 27 25 13 17 16 14
31 27 6 1 2 5 5 5 7 5 5 8 6 8 3 7 9 8 2 4 4 3 4 4 6 4 4 1 2 5 6 5 5 4 7 2 4 10 17 11 23 23 17 17 17
33 17 2 3 5 7 4 7 5 1 4 4 5 8 6 9 6 9 4 4 4 3 2 2 13 4 1 7 6 3 8 6 4 3 7 2 6 8 4 9 5 8 14 14 17
24 4 2 4 1 2 7 7 3 0 5 5 8 6 7 7 2 7 6 4 3 2 2 1 6 3 5 2 5 2 2 5 6 3 1 3 6 5 4 4 4 9 16 16 18
4 4 3 8 2 5 7 4 3 3 5 3 3 3 5 6 8 8 3 5 8 5 3 3 3 3 5 2 3 7 6 2 3 3 4 5 4 6 6 9 6 10 15 16 16
4 4 4 10 3 7 4 3 3 2 4 3 4 3 3 4 3 4 7 2 6 8 6 4 2 7 1 3 5 4 2 3 4 5 6 4 8 10 13 16 17 14 13 17 18
3 2 5 6 6 2 2 3 4 4 6 4 4 3 2 2 2 4 5 2 10 6 5 3 2 3 7 5 4 2 5 6 4 8 3 4 9 5 12 11 13 15 13 14 14
3 3 5 3 3 2 5 3 2 6 5 4 3 4 4 3 3 2 4 3 9 8 5 6 2 4 10 6 6 5 2 5 4 2 6 5 8 3 4 8 13 8 9 11 13
3 5 6 6 2 3 3 3 5 6 3 4 3 4 4 2 1 4 4 4 13 4 10 1 2 6 7 7 2 6 5 7 7 1 7 9 6 5 7 10 8 9 11 14 15
4 0 2 4 4 3 1 1 3 4 4 7 3 4 1 2 2 1 3 6 8 4 5 3 4 3 5 6 5 6 11 8 2 7 8 21 9 11 14 15 16 9 10 12 14
2 3 4 1 2 1 3 1 1 5 1 2 3 7 1 2 4 3 4 2 7 6 4 4 5 4 6 10 10 14 14 11 5 5 9 15 11 9 5 6 6 12 14 15 17
2 1 4 3 3 2 1 1 1 3 1 5 3 3 4 2 5 10 11 9 10 5 2 2 3 1 6 3 5 9 11 15 5 5 4 10 11 8 7 9 13 14 16 19 19
Wind_Direction
350 345 348 341 339 336 337 338 334 333 331 329 327 326 325 326 317 161 246 221 184 125 145 128 64 98 79 131 117 134 72 165 207 169 221 150 133 264 270 149 115 156 132 129 126
347 348 344 336 337 335 335 334 331 330 327 325 326 324 324 328 311 247 250 215 205 150 133 139 158 128 77 132 60 98 126 202 201 201 187 171 137 159 159 165 163 78 90 128 136
347 345 338 336 336 333 333 331 329 327 327 326 322 321 327 326 320 250 330 214 176 180 115 104 117 119 122 144 178 152 169 201 236 211 149 146 142 170 143 212 200 165 150 148 147
347 341 335 335 333 331 329 326 325 323 321 319 318 321 323 306 336 34 358 139 160 153 107 107 78 105 125 165 174 133 214 182 222 208 141 159 140 177 205 213 168 155 154 153 158
344 336 333 333 331 328 325 322 320 315 313 311 312 316 330 331 252 315 89 123 111 130 144 126 127 148 162 174 117 181 195 209 237 177 189 130 171 177 212 195 132 138 152 157 157
339 333 332 331 328 325 320 316 313 311 307 298 290 277 241 270 245 309 125 134 128 116 140 134 180 196 126 172 161 197 197 233 311 147 171 127 151 147 204 144 142 149 160 157 158
335 332 330 328 325 322 319 316 311 307 298 277 232 207 194 241 97 66 154 169 165 142 147 226 179 134 150 343 228 209 202 112 37 176 151 110 31 223 154 153 153 157 157 146 136
333 328 327 327 324 321 319 317 313 310 284 197 179 203 245 236 285 296 165 242 177 159 160 203 176 107 135 259 22 54 55 51 55 117 192 133 227 204 159 155 164 155 127 110 111
330 326 326 325 323 320 319 315 312 27 128 146 149 211 269 327 276 266 163 182 144 133 196 136 125 103 34 77 19 3 130 59 41 138 163 190 224 169 165 165 137 117 116 114 84
328 326 325 322 321 321 318 312 210 83 136 206 253 336 285 3 286 244 156 147 120 126 80 102 52 78 39 65 209 201 52 1 232 202 189 193 262 192 175 136 138 126 139 147 135
329 327 325 321 322 323 335 68 12 353 175 234 225 256 270 282 305 9 123 100 99 60 69 21 79 188 223 190 163 147 193 228 256 187 133 214 218 201 162 143 146 156 162 175 169
329 328 326 322 323 321 287 81 118 183 305 242 257 251 256 74 312 308 123 112 102 187 72 17 291 227 171 149 157 178 231 258 297 223 178 185 245 152 182 187 175 176 185 178 163
329 328 327 326 321 11 344 122 22 131 290 300 221 235 279 133 194 263 163 130 130 136 168 170 222 112 142 214 219 207 194 216 195 175 1 109 331 153 192 171 202 210 200 174 173
330 330 331 327 42 317 286 355 295 191 49 302 341 335 80 113 265 205 203 141 104 194 158 231 263 212 170 234 153 277 206 230 196 140 227 180 268 227 200 210 205 218 206 180 183
331 332 333 330 266 72 313 319 313 69 45 317 330 257 351 222 285 248 165 63 179 171 122 239 186 155 186 215 173 228 191 237 272 173 113 199 102 257 160 220 228 218 204 181 166
333 332 334 148 114 249 311 309 55 42 344 341 343 345 8 7 322 319 129 88 161 147 211 242 247 174 218 193 193 271 37 48 58 98 80 232 156 227 184 216 226 219 206 178 162
333 330 314 211 330 326 320 43 42 94 333 342 331 340 349 335 348 13 49 133 153 117 274 326 257 260 200 236 334 80 55 347 348 5 218 37 100 235 217 237 218 210 193 177 163
331 328 199 233 303 345 44 50 75 279 342 332 318 330 61 357 344 339 22 45 32 70 104 207 306 191 271 187 185 164 142 155 242 235 253 80 210 251 275 236 207 171 168 167 166
328 332 2 301 310 78 67 59 170 124 296 315 330 40 357 350 17 3 9 20 50 47 135 133 281 271 231 173 106 327 210 191 128 1 54 235 291 321 332 316 137 157 165 173 173
344 338 312 327 49 52 71 178 198 216 311 345 47 46 38 347 6 4 10 341 342 356 329 216 293 278 311 132 225 164 169 295 0 203 254 291 284 233 246 235 192 181 183 178 174
32 32 273 334 76 45 110 204 276 271 12 21 19 8 40 25 299 301 347 74 3 316 345 17 139 289 25 54 261 343 287 75 139 144 181 221 258 219 208 199 203 200 190 179 181
11 35 319 351 50 46 90 324 295 354 1 21 95 86 71 21 306 336 347 251 344 306 359 344 140 277 226 286 264 138 64 66 23 290 212 167 270 244 220 198 186 197 185 187 181
36 276 319 30 105 0 324 335 359 10 0 16 70 61 46 23 351 7 311 295 17 347 356 333 318 355 335 344 16 82 139 107 209 1 227 161 261 291 180 168 208 194 155 174 169
43 356 334 37 20 89 35 357 322 3 53 359 84 60 39 21 349 303 328 317 332 306 305 306 245 186 207 221 178 297 283 113 116 208 320 256 262 258 229 197 191 186 170 176 173
25 46 167 327 1 32 35 348 334 353 7 17 56 58 294 246 294 278 333 334 301 324 351 56 277 241 248 249 230 235 278 292 238 259 224 270 245 245 215 198 198 176 152 160 169
67 43 0 305 307 331 5 41 75 322 315 12 54 327 298 180 74 304 16 255 253 320 354 10 280 315 271 272 251 266 271 252 207 309 271 250 259 238 129 90 150 176 170 181 183
336 7 109 327 341 77 223 114 58 1 338 80 18 346 338 83 284 247 225 235 242 275 260 238 219 273 266 305 325 284 250 231 228 170 247 253 247 161 189 188 197 185 188 191 186